Time,TemperatureF,DewpointF,PressureIn,WindDirection,WindDirectionDegrees,WindSpeedMPH,WindSpeedGustMPH,Humidity,HourlyPrecipIn,Conditions,Clouds,dailyrainin,SoftwareType,DateUTC
2013-02-25 00:10:00,25.5,16.0,32.24,North,5,1.0,2.0,68,0.00,,,0.00,weatherlink.com 1.10,2013-02-25 07:10:00,
2013-02-25 00:25:00,25.6,16.0,32.24,ENE,71,2.0,2.0,68,0.00,,,0.00,weatherlink.com 1.10,2013-02-25 07:25:00,
2013-02-25 00:40:00,25.6,17.0,32.24,ENE,71,1.0,2.0,69,0.00,,,0.00,weatherlink.com 1.10,2013-02-25 07:40:00,
2013-02-25 00:55:00,26.1,16.0,32.23,ESE,102,3.0,6.0,67,0.00,,,0.00,weatherlink.com 1.10,2013-02-25 07:55:00,
2013-02-25 01:10:00,-999.0,-99.9,32.23,North,-999,-999.0,-999.0,-999,0.00,,,0.00,weatherlink.com 1.10,2013-02-25 08:10:00,
2013-02-25 01:25:00,-999.0,-99.9,32.22,North,-999,-999.0,-999.0,-999,0.00,,,0.00,weatherlink.com 1.10,2013-02-25 08:25:00,
2013-02-25 01:40:00,-999.0,-99.9,32.21,North,-999,-999.0,-999.0,-999,0.00,,,0.00,weatherlink.com 1.10,2013-02-25 08:40:00,
2013-02-25 01:55:00,26.2,17.0,32.20,East,86,5.0,7.0,67,0.00,,,0.00,weatherlink.com 1.10,2013-02-25 08:55:00,
2013-02-25 02:10:00,26.4,16.0,32.20,ESE,108,3.0,8.0,66,0.00,,,0.00,weatherlink.com 1.10,2013-02-25 09:10:00,
2013-02-25 02:25:00,26.1,17.0,32.20,SE,128,5.0,8.0,68,0.00,,,0.00,weatherlink.com 1.10,2013-02-25 09:25:00,
2013-02-25 02:40:00,25.8,17.0,32.20,ESE,115,4.0,7.0,68,0.00,,,0.00,weatherlink.com 1.10,2013-02-25 09:40:00,
2013-02-25 02:55:00,25.9,17.0,32.19,East,88,6.0,9.0,68,0.00,,,0.00,weatherlink.com 1.10,2013-02-25 09:55:00,
2013-02-25 03:10:00,25.6,17.0,32.18,ESE,105,5.0,11.0,69,0.00,,,0.00,weatherlink.com 1.10,2013-02-25 10:10:00,
2013-02-25 03:25:00,25.1,16.0,32.17,ESE,107,7.0,10.0,69,0.00,,,0.00,weatherlink.com 1.10,2013-02-25 10:25:00,
2013-02-25 03:40:00,24.9,16.0,32.16,ESE,103,8.0,12.0,70,0.00,,,0.00,weatherlink.com 1.10,2013-02-25 10:40:00,
2013-02-25 03:55:00,24.7,16.0,32.16,ESE,112,9.0,11.0,70,0.00,,,0.00,weatherlink.com 1.10,2013-02-25 10:55:00,
2013-02-25 04:10:00,24.6,16.0,32.15,East,98,9.0,12.0,70,0.00,,,0.00,weatherlink.com 1.10,2013-02-25 11:10:00,
2013-02-25 04:25:00,24.6,16.0,32.14,ESE,113,10.0,11.0,70,0.00,,,0.00,weatherlink.com 1.10,2013-02-25 11:25:00,
2013-02-25 04:40:00,24.4,16.0,32.14,ESE,105,10.0,11.0,70,0.00,,,0.00,weatherlink.com 1.10,2013-02-25 11:40:00,
2013-02-25 04:55:00,24.3,16.0,32.13,ESE,108,7.0,11.0,70,0.00,,,0.00,weatherlink.com 1.10,2013-02-25 11:55:00,
2013-02-25 05:10:00,24.2,16.0,32.12,East,91,7.0,11.0,70,0.00,,,0.00,weatherlink.com 1.10,2013-02-25 12:10:00,
2013-02-25 05:25:00,23.8,15.0,32.12,ENE,69,9.0,10.0,70,0.00,,,0.00,weatherlink.com 1.10,2013-02-25 12:25:00,
2013-02-25 05:40:00,24.2,15.0,32.11,East,93,7.0,11.0,69,0.00,,,0.00,weatherlink.com 1.10,2013-02-25 12:40:00,
2013-02-25 05:55:00,24.6,15.0,32.10,East,94,9.0,13.0,67,0.00,,,0.00,weatherlink.com 1.10,2013-02-25 12:55:00,
2013-02-25 06:10:00,24.5,15.0,32.10,ESE,107,10.0,12.0,68,0.00,,,0.00,weatherlink.com 1.10,2013-02-25 13:10:00,
2013-02-25 06:25:00,24.5,15.0,32.09,ESE,103,7.0,13.0,68,0.00,,,0.00,weatherlink.com 1.10,2013-02-25 13:25:00,
2013-02-25 06:40:00,24.9,15.0,32.08,SE,139,11.0,13.0,66,0.00,,,0.00,weatherlink.com 1.10,2013-02-25 13:40:00,
2013-02-25 06:56:00,25.1,15.0,32.07,East,82,6.0,12.0,65,0.00,,,0.00,weatherlink.com 1.10,2013-02-25 13:56:00,
2013-02-25 07:11:00,25.1,15.0,32.06,East,91,8.0,13.0,65,0.00,,,0.00,weatherlink.com 1.10,2013-02-25 14:11:00,
2013-02-25 07:26:00,25.2,15.0,32.05,East,96,13.0,17.0,65,0.00,,,0.00,weatherlink.com 1.10,2013-02-25 14:26:00,
2013-02-25 07:41:00,25.2,15.0,32.04,East,82,14.0,14.0,64,0.00,,,0.00,weatherlink.com 1.10,2013-02-25 14:41:00,
2013-02-25 07:56:00,25.3,15.0,32.04,East,86,3.0,11.0,64,0.00,,,0.00,weatherlink.com 1.10,2013-02-25 14:56:00,
2013-02-25 08:11:00,25.1,15.0,32.04,East,97,7.0,13.0,65,0.00,,,0.00,weatherlink.com 1.10,2013-02-25 15:11:00,
2013-02-25 08:26:00,25.0,15.0,32.03,East,88,8.0,13.0,65,0.00,,,0.00,weatherlink.com 1.10,2013-02-25 15:26:00,
2013-02-25 08:41:00,25.1,15.0,32.02,ENE,71,7.0,13.0,65,0.00,,,0.00,weatherlink.com 1.10,2013-02-25 15:41:00,
2013-02-25 08:56:00,25.5,15.0,32.02,East,85,13.0,13.0,64,0.00,,,0.00,weatherlink.com 1.10,2013-02-25 15:56:00,
2013-02-25 09:11:00,25.9,15.0,32.03,ESE,120,4.0,16.0,64,0.00,,,0.00,weatherlink.com 1.10,2013-02-25 16:11:00,
2013-02-25 09:26:00,26.2,15.0,32.02,SE,133,5.0,14.0,63,0.00,,,0.00,weatherlink.com 1.10,2013-02-25 16:26:00,
2013-02-25 09:41:00,26.7,16.0,32.02,ESE,121,4.0,6.0,63,0.00,,,0.00,weatherlink.com 1.10,2013-02-25 16:41:00,
2013-02-25 09:56:00,27.6,16.0,32.01,ESE,113,10.0,14.0,61,0.00,,,0.00,weatherlink.com 1.10,2013-02-25 16:56:00,
2013-02-25 10:11:00,27.5,16.0,32.01,SE,129,5.0,14.0,61,0.00,,,0.00,weatherlink.com 1.10,2013-02-25 17:11:00,
2013-02-25 10:26:00,28.1,16.0,32.00,SSE,148,7.0,18.0,60,0.00,,,0.00,weatherlink.com 1.10,2013-02-25 17:26:00,
2013-02-25 10:41:00,27.9,16.0,32.00,SE,125,5.0,14.0,61,0.00,,,0.00,weatherlink.com 1.10,2013-02-25 17:41:00,
2013-02-25 10:56:00,27.9,16.0,32.00,ESE,104,5.0,9.0,61,0.00,,,0.00,weatherlink.com 1.10,2013-02-25 17:56:00,
2013-02-25 11:11:00,27.8,16.0,32.00,SSE,150,1.0,13.0,62,0.00,,,0.00,weatherlink.com 1.10,2013-02-25 18:11:00,
2013-02-25 11:26:00,28.4,17.0,31.99,ESE,117,7.0,10.0,63,0.00,,,0.00,weatherlink.com 1.10,2013-02-25 18:26:00,
2013-02-25 11:41:00,29.2,19.0,32.00,SE,136,8.0,11.0,65,0.00,,,0.00,weatherlink.com 1.10,2013-02-25 18:41:00,
2013-02-25 11:56:00,29.4,19.0,31.99,SE,125,5.0,8.0,66,0.00,,,0.00,weatherlink.com 1.10,2013-02-25 18:56:00,
2013-02-25 12:26:00,29.7,21.0,32.00,East,84,3.0,8.0,70,0.00,,,0.00,weatherlink.com 1.10,2013-02-25 19:26:00,
2013-02-25 12:41:00,29.6,22.0,32.00,South,177,3.0,10.0,74,0.00,,,0.00,weatherlink.com 1.10,2013-02-25 19:41:00,
2013-02-25 12:56:00,29.9,23.0,32.00,SE,145,8.0,10.0,76,0.00,,,0.00,weatherlink.com 1.10,2013-02-25 19:56:00,
2013-02-25 13:11:00,29.6,26.0,31.99,South,188,8.0,13.0,85,0.00,,,0.00,weatherlink.com 1.10,2013-02-25 20:11:00,
2013-02-25 13:26:00,30.2,25.0,31.98,South,178,10.0,14.0,80,0.00,,,0.00,weatherlink.com 1.10,2013-02-25 20:26:00,
2013-02-25 13:42:00,31.3,25.0,31.98,SW,223,7.0,12.0,77,0.00,,,0.00,weatherlink.com 1.10,2013-02-25 20:42:00,
2013-02-25 13:57:00,31.3,24.0,31.98,SSE,151,9.0,16.0,73,0.00,,,0.00,weatherlink.com 1.10,2013-02-25 20:57:00,
2013-02-25 14:12:00,31.8,22.0,31.98,SSE,154,13.0,17.0,67,0.00,,,0.00,weatherlink.com 1.10,2013-02-25 21:12:00,
2013-02-25 14:27:00,-999.0,-99.9,0.00,North,-999,-999.0,-999.0,-999,0.00,,,0.00,weatherlink.com 1.10,2013-02-25 21:27:00,
2013-02-25 14:39:00,-999.0,-99.9,0.00,North,-999,-999.0,-999.0,-999,0.00,,,0.00,weatherlink.com 1.10,2013-02-25 21:39:00,
2013-02-25 14:54:00,30.9,23.0,31.97,South,184,9.0,13.0,71,0.00,,,0.00,weatherlink.com 1.10,2013-02-25 21:54:00,
2013-02-25 15:10:00,30.1,22.0,31.98,SSW,202,7.0,14.0,73,0.00,,,0.00,weatherlink.com 1.10,2013-02-25 22:10:00,
2013-02-25 15:25:00,30.4,23.0,31.98,SSW,193,4.0,11.0,75,0.00,,,0.00,weatherlink.com 1.10,2013-02-25 22:25:00,
2013-02-25 15:40:00,30.4,23.0,31.98,South,185,4.0,7.0,75,0.00,,,0.00,weatherlink.com 1.10,2013-02-25 22:40:00,
2013-02-25 15:55:00,31.2,22.0,31.99,WSW,257,2.0,7.0,69,0.00,,,0.00,weatherlink.com 1.10,2013-02-25 22:55:00,
2013-02-25 16:10:00,31.1,22.0,32.00,WSW,246,7.0,11.0,68,0.00,,,0.00,weatherlink.com 1.10,2013-02-25 23:10:00,
2013-02-25 16:25:00,31.8,18.0,32.00,WSW,248,9.0,16.0,56,0.00,,,0.00,weatherlink.com 1.10,2013-02-25 23:25:00,
2013-02-25 16:40:00,31.4,20.0,32.00,SW,233,5.0,8.0,64,0.00,,,0.00,weatherlink.com 1.10,2013-02-25 23:40:00,
2013-02-25 16:55:00,31.1,17.0,32.01,WNW,290,14.0,16.0,56,0.00,,,0.00,weatherlink.com 1.10,2013-02-25 23:55:00,
2013-02-25 17:10:00,30.4,19.0,32.01,WSW,244,8.0,17.0,64,0.00,,,0.00,weatherlink.com 1.10,2013-02-26 00:10:00,
2013-02-25 17:25:00,30.0,19.0,32.01,SW,231,2.0,7.0,64,0.00,,,0.00,weatherlink.com 1.10,2013-02-26 00:25:00,
2013-02-25 17:40:00,29.6,20.0,32.01,South,175,4.0,7.0,68,0.00,,,0.00,weatherlink.com 1.10,2013-02-26 00:40:00,
2013-02-25 17:55:00,29.0,21.0,32.01,SE,140,7.0,10.0,71,0.00,,,0.00,weatherlink.com 1.10,2013-02-26 00:55:00,
2013-02-25 18:10:00,28.5,21.0,32.01,ESE,115,1.0,4.0,73,0.00,,,0.00,weatherlink.com 1.10,2013-02-26 01:10:00,
2013-02-25 18:25:00,28.0,21.0,32.02,SE,134,0.0,5.0,75,0.00,,,0.00,weatherlink.com 1.10,2013-02-26 01:25:00,
2013-02-25 18:40:00,27.9,21.0,32.03,SE,132,3.0,9.0,75,0.00,,,0.00,weatherlink.com 1.10,2013-02-26 01:40:00,
2013-02-25 18:55:00,27.6,21.0,32.03,SSE,161,6.0,10.0,75,0.00,,,0.00,weatherlink.com 1.10,2013-02-26 01:55:00,
2013-02-25 19:10:00,28.0,20.0,32.03,SSE,150,2.0,11.0,73,0.00,,,0.00,weatherlink.com 1.10,2013-02-26 02:10:00,
2013-02-25 19:25:00,27.9,20.0,32.04,South,171,2.0,7.0,73,0.00,,,0.00,weatherlink.com 1.10,2013-02-26 02:25:00,
2013-02-25 19:40:00,27.9,21.0,32.05,SE,129,6.0,11.0,74,0.00,,,0.00,weatherlink.com 1.10,2013-02-26 02:40:00,
2013-02-25 19:55:00,27.6,21.0,32.06,ESE,108,4.0,5.0,76,0.00,,,0.00,weatherlink.com 1.10,2013-02-26 02:55:00,
2013-02-25 20:10:00,26.5,21.0,32.06,SE,145,5.0,13.0,80,0.00,,,0.00,weatherlink.com 1.10,2013-02-26 03:10:00,
2013-02-25 20:25:00,26.2,21.0,32.06,ESE,119,10.0,11.0,82,0.00,,,0.00,weatherlink.com 1.10,2013-02-26 03:25:00,
2013-02-25 20:41:00,25.5,22.0,32.07,SE,130,4.0,8.0,86,0.00,,,0.00,weatherlink.com 1.10,2013-02-26 03:41:00,
2013-02-25 20:56:00,25.2,22.0,32.07,ESE,123,9.0,9.0,87,0.00,,,0.00,weatherlink.com 1.10,2013-02-26 03:56:00,
2013-02-25 21:11:00,25.0,22.0,32.07,SE,131,5.0,8.0,88,0.00,,,0.00,weatherlink.com 1.10,2013-02-26 04:11:00,
2013-02-25 21:26:00,24.8,22.0,32.08,East,81,5.0,9.0,87,0.00,,,0.00,weatherlink.com 1.10,2013-02-26 04:26:00,
2013-02-25 21:41:00,24.9,21.0,32.08,NE,51,1.0,7.0,86,0.00,,,0.00,weatherlink.com 1.10,2013-02-26 04:41:00,
2013-02-25 21:56:00,25.0,21.0,32.09,SSE,167,5.0,5.0,84,0.00,,,0.00,weatherlink.com 1.10,2013-02-26 04:56:00,
2013-02-25 22:11:00,25.3,21.0,32.09,SE,142,0.0,4.0,82,0.00,,,0.00,weatherlink.com 1.10,2013-02-26 05:11:00,
2013-02-25 22:26:00,25.3,21.0,32.11,West,261,0.0,6.0,83,0.00,,,0.00,weatherlink.com 1.10,2013-02-26 05:26:00,
2013-02-25 22:41:00,25.1,21.0,32.11,West,279,2.0,6.0,84,0.00,,,0.00,weatherlink.com 1.10,2013-02-26 05:41:00,
2013-02-25 22:56:00,25.4,21.0,32.11,SSW,200,4.0,5.0,83,0.00,,,0.00,weatherlink.com 1.10,2013-02-26 05:56:00,
2013-02-25 23:11:00,25.6,21.0,32.12,SSW,200,0.0,6.0,82,0.00,,,0.00,weatherlink.com 1.10,2013-02-26 06:11:00,
2013-02-25 23:26:00,25.3,21.0,32.12,SE,128,3.0,4.0,83,0.00,,,0.00,weatherlink.com 1.10,2013-02-26 06:26:00,
2013-02-25 23:41:00,24.9,20.0,32.12,North,11,4.0,6.0,83,0.00,,,0.00,weatherlink.com 1.10,2013-02-26 06:41:00,
2013-02-25 23:56:00,25.2,20.0,32.12,SSE,153,1.0,4.0,82,0.00,,,0.00,weatherlink.com 1.10,2013-02-26 06:56:00,